{"data":{"norad_id":68326,"intl_designator":"2026-059F","name":"STARLINK-37206","alt_names":[],"object_type":"PAYLOAD","status":"ACTIVE","operator":null,"country":"US","launch_date":"2026-03-22","launch_site_code":"AFETR","launch_vehicle":null,"mission":null,"orbit_class":"UNKNOWN","rcs_meters":null,"size_class":null,"mass_kg":null,"dimensions":null,"purposes":["comms"],"wikipedia_slug":null,"has_3d_model":false,"image_url":null,"decayed_at":null,"tle_current":{"epoch":"2026-05-24T21:01:23.153952Z","epoch_age_seconds":83083,"freshness":"FRESH","line1":"1 68326U 26059F   26144.87596243  .00011787  00000+0  40940-3 0  9991","line2":"2 68326  53.1587 354.1373 0001126 101.9816 258.1311 15.30205241  9843","mean_motion":15.30205241,"eccentricity":0.0001126,"inclination_deg":53.1587,"raan_deg":354.1373,"arg_perigee_deg":101.9816,"mean_anomaly_deg":258.1311,"bstar":0.0004094,"rev_number":984,"period_min":94.105023392741,"perigee_km":474.4277351017,"apogee_km":475.97110646366,"semimajor_km":6853.3364207827,"source":"CELESTRAK","updated_at":"2026-05-25T13:38:21.922212Z"}}}